DW8700 Weather Reports


Display with metric or nautical units.
time (UTC)temp
F
wind
direction
speed
MPH
gust
MPH
rain 1hr
in
rain 24hr
in
rain mn
in
humidity
%
barometer
mb
20260507025036 68 15 0.0 0.0 0.00 0.00 0.00 66 1016.7
20260507024548 69 15 0.0 0.0 0.00 0.00 0.00 65 1016.7
20260507024035 69 72 0.0 0.0 0.00 0.00 0.00 64 1016.7
20260507023534 69 72 0.0 0.0 0.00 0.00 0.00 65 1016.6
20260507023035 70 72 0.0 0.0 0.00 0.00 0.00 64 1016.5
20260507022535 70 71 0.0 0.0 0.00 0.00 0.00 62 1016.5
20260507022034 71 83 0.0 0.0 0.00 0.00 0.00 61 1016.5
20260507021537 71 82 0.0 0.0 0.00 0.00 0.00 60 1016.6
20260507021034 72 101 0.0 0.0 0.00 0.00 0.00 59 1016.5
20260507020535 73 101 0.0 0.0 0.00 0.00 0.00 59 1016.5
20260507020040 73 221 0.0 0.0 0.00 0.00 0.00 59 1016.4
20260507015532 73 178 0.0 0.0 0.00 0.00 0.00 58 1016.5
20260507015033 73 200 0.0 0.0 0.00 0.00 0.00 60 1016.4
20260507014541 73 195 0.0 0.0 0.00 0.00 0.00 58 1016.4
20260507014032 73 176 0.0 0.0 0.00 0.00 0.00 58 1016.5
20260507013534 74 109 0.0 0.0 0.00 0.00 0.00 57 1016.4
20260507013039 74 98 0.0 0.0 0.00 0.00 0.00 57 1016.5
20260507012534 75 129 0.0 0.0 0.00 0.00 0.00 55 1016.5
20260507012032 75 94 0.0 0.0 0.00 0.00 0.00 54 1016.6
20260507011536 76 84 0.0 0.0 0.00 0.00 0.00 55 1016.6
20260507011032 76 213 0.0 0.0 0.00 0.00 0.00 55 1016.5
20260507010531 76 274 0.0 0.0 0.00 0.00 0.00 55 1016.4
20260507010039 76 132 0.0 0.0 0.00 0.00 0.00 54 1016.4
20260507005532 76 233 0.0 0.0 0.00 0.00 0.00 56 1016.5
20260507005034 76 159 0.0 0.0 0.00 0.00 0.00 56 1016.4
20260507004532 77 153 0.0 0.0 0.00 0.00 0.00 55 1016.3
20260507004030 76 187 0.0 0.0 0.00 0.00 0.00 56 1016.3
20260507003531 76 213 0.0 0.0 0.00 0.00 0.00 56 1016.4
20260507003029 76 110 0.0 0.0 0.00 0.00 0.00 55 1016.3
20260507002529 76 108 0.0 0.0 0.00 0.00 0.00 56 1016.3
20260507002029 76 116 0.0 0.0 0.00 0.00 0.00 55 1016.3
20260507001534 77 74 0.0 0.0 0.00 0.00 0.00 54 1016.2
20260507001028 77 175 0.0 0.0 0.00 0.00 0.00 54 1016.3
20260507000528 77 128 0.0 0.0 0.00 0.00 0.00 57 1016.3
20260507000028 77 212 0.0 0.0 0.00 0.00 0.00 55 1016.2
20260506235527 77 153 0.0 0.0 0.00 0.00 0.00 54 1016.3
20260506235026 77 198 0.0 0.0 0.00 0.00 0.00 55 1016.3
20260506234525 77 195 0.0 0.0 0.00 0.00 0.00 54 1016.4
20260506234025 76 246 0.0 0.0 0.00 0.00 0.00 56 1016.4
20260506233524 76 200 0.0 0.0 0.00 0.00 0.00 55 1016.5
20260506233023 76 138 0.0 0.0 0.00 0.00 0.00 57 1016.4
20260506232521 76 114 0.0 0.0 0.00 0.00 0.00 56 1016.4
20260506232020 75 207 0.0 0.0 0.00 0.00 0.00 57 1016.5
20260506231521 75 224 0.0 0.0 0.00 0.00 0.00 59 1016.6
20260506231019 74 138 0.0 0.0 0.00 0.00 0.00 59 1016.5
20260506230518 74 103 0.0 0.0 0.00 0.00 0.00 58 1016.6
20260506230013 75 80 0.0 0.0 0.00 0.00 0.00 57 1016.7
20260506225515 75 91 0.0 0.0 0.00 0.00 0.00 58 1016.8
20260506225018 75 137 0.0 0.0 0.00 0.00 0.00 58 1016.8
20260506224512 75 92 0.0 0.0 0.00 0.00 0.00 56 1016.8
20260506224011 75 202 0.0 0.0 0.00 0.00 0.00 57 1017.0
20260506223510 75 112 0.0 0.0 0.00 0.00 0.00 57 1017.0
20260506223016 75 182 0.0 0.0 0.00 0.00 0.00 56 1017.0
20260506222509 75 210 0.0 0.0 0.00 0.00 0.00 59 1017.0
20260506222009 74 203 0.0 0.0 0.00 0.00 0.00 59 1017.1
20260506221508 75 76 0.0 0.0 0.00 0.00 0.00 58 1017.2
20260506221007 75 81 0.0 0.0 0.00 0.00 0.00 58 1017.2
20260506220507 75 234 0.0 0.0 0.00 0.00 0.00 58 1017.2
20260506220006 75 94 0.0 0.0 0.00 0.00 0.00 59 1017.4
20260506215506 75 128 0.0 0.0 0.00 0.00 0.00 58 1017.5
20260506215005 75 113 0.0 0.0 0.00 0.00 0.00 59 1017.5
20260506214504 75 116 0.0 0.0 0.00 0.00 0.00 60 1017.5
20260506214003 75 71 0.0 0.0 0.00 0.00 0.00 58 1017.6
20260506213501 75 121 0.0 0.0 0.00 0.00 0.00 61 1017.7
20260506213001 74 61 0.0 0.0 0.00 0.00 0.00 60 1017.8
20260506212501 74 111 0.0 0.0 0.00 0.00 0.00 60 1017.8
20260506212001 74 189 0.0 0.0 0.00 0.00 0.00 59 1017.9
20260506211600 75 123 0.0 0.0 0.00 0.00 0.00 60 1017.8
20260506211059 74 76 0.0 0.0 0.00 0.00 0.00 61 1018.0
20260506210559 74 228 0.0 0.0 0.00 0.00 0.00 61 1017.9
20260506210057 74 218 0.0 0.0 0.00 0.00 0.00 61 1017.9
20260506205556 73 105 0.0 0.0 0.00 0.00 0.00 62 1017.9
20260506205056 73 118 0.0 0.0 0.00 0.00 0.00 63 1017.9
20260506204556 73 67 0.0 0.0 0.00 0.00 0.00 60 1017.9
20260506204055 73 172 0.0 0.0 0.00 0.00 0.00 61 1018.1
20260506203555 73 186 0.0 0.0 0.00 0.00 0.00 60 1018.1
20260506203055 73 61 0.0 0.0 0.00 0.00 0.00 61 1018.2
20260506202555 73 133 0.0 0.0 0.00 0.00 0.00 60 1018.2
20260506202055 73 199 0.0 0.0 0.00 0.00 0.00 61 1018.2
20260506201556 73 209 0.0 0.0 0.00 0.00 0.00 61 1018.3
20260506201053 73 188 0.0 0.0 0.00 0.00 0.00 63 1018.3
20260506200551 72 190 0.0 0.0 0.00 0.00 0.00 64 1018.4
20260506200050 72 104 0.0 0.0 0.00 0.00 0.00 62 1018.5
20260506195549 72 71 0.0 0.0 0.00 0.00 0.00 62 1018.5
20260506195049 72 217 0.0 0.0 0.00 0.00 0.00 62 1018.5
20260506194549 72 214 0.0 0.0 0.00 0.00 0.00 64 1018.5
20260506194049 72 100 0.0 0.0 0.00 0.00 0.00 62 1018.5
20260506193553 71 146 0.0 0.0 0.00 0.00 0.00 64 1018.6
20260506193048 71 90 0.0 0.0 0.00 0.00 0.00 63 1018.6
20260506192548 71 108 0.0 0.0 0.00 0.00 0.00 62 1018.7
20260506192048 71 189 0.0 0.0 0.00 0.00 0.00 65 1018.8
20260506191549 71 190 0.0 0.0 0.00 0.00 0.00 62 1018.8
20260506191047 71 111 0.0 0.0 0.00 0.00 0.00 63 1018.9
20260506190547 71 202 0.0 0.0 0.00 0.00 0.00 64 1018.9
20260506190047 71 87 0.0 0.0 0.00 0.00 0.00 65 1018.9
20260506185543 70 179 0.0 0.0 0.00 0.00 0.00 68 1018.9
20260506185043 70 59 0.0 0.0 0.00 0.00 0.00 66 1018.9
20260506184548 70 86 0.0 0.0 0.00 0.00 0.00 66 1018.9
20260506184041 69 88 0.0 0.0 0.00 0.00 0.00 68 1018.9
20260506183543 69 219 0.0 0.0 0.00 0.00 0.00 69 1019.0
20260506183039 68 174 0.0 0.0 0.00 0.00 0.00 69 1019.0
20260506182538 68 189 0.0 0.0 0.00 0.00 0.00 73 1019.1
20260506182037 67 193 0.0 0.0 0.00 0.00 0.00 69 1019.1
20260506181538 67 120 0.0 0.0 0.00 0.00 0.00 72 1019.1
20260506181037 67 198 0.0 0.0 0.00 0.00 0.00 69 1019.1
20260506180537 67 268 0.0 0.0 0.00 0.00 0.00 70 1019.1
20260506180036 67 213 0.0 0.0 0.00 0.00 0.00 68 1019.1
20260506175535 66 243 0.0 0.0 0.00 0.00 0.00 70 1019.1
20260506175036 67 236 0.0 0.0 0.00 0.00 0.00 68 1019.1
20260506174536 67 240 0.0 0.0 0.00 0.00 0.00 69 1019.1
20260506174037 67 240 0.0 0.0 0.00 0.00 0.00 68 1019.1
20260506173535 67 271 0.0 0.0 0.00 0.00 0.00 69 1019.1
20260506173050 68 265 0.0 0.0 0.00 0.00 0.00 67 1019.1
20260506172534 67 257 0.0 0.0 0.00 0.00 0.00 68 1019.1
20260506172032 67 231 0.0 0.0 0.00 0.00 0.00 70 1019.1
20260506171531 66 218 0.0 0.0 0.00 0.00 0.00 70 1019.2
20260506171033 66 205 0.0 0.0 0.00 0.00 0.00 70 1019.2
20260506170529 66 205 0.0 0.0 0.00 0.00 0.00 70 1019.2
20260506170031 66 190 0.0 0.0 0.00 0.00 0.00 69 1019.2
20260506165527 65 95 0.0 0.0 0.00 0.00 0.00 71 1019.3
20260506165026 65 20 0.0 0.0 0.00 0.00 0.00 73 1019.3
20260506164525 64 282 0.0 0.0 0.00 0.00 0.00 74 1019.3
20260506164025 64 254 0.0 0.0 0.00 0.00 0.00 72 1019.3
20260506163528 64 204 0.0 0.0 0.00 0.00 0.00 72 1019.4
20260506163027 64 169 0.0 0.0 0.00 0.00 0.00 73 1019.5
20260506162524 63 168 0.0 0.0 0.00 0.00 0.00 77 1019.4
20260506162020 62 173 0.0 0.0 0.00 0.00 0.00 77 1019.4
20260506161516 61 173 0.0 0.0 0.00 0.00 0.00 79 1019.5
20260506161014 61 168 0.0 0.0 0.00 0.00 0.00 81 1019.4
20260506160514 60 167 0.0 0.0 0.00 0.00 0.00 83 1019.5
20260506160012 59 165 0.0 0.0 0.00 0.00 0.00 83 1019.6
20260506155510 58 154 0.0 0.0 0.00 0.00 0.00 85 1019.5
20260506155008 58 148 0.0 1.0 0.00 0.00 0.00 86 1019.6
20260506154508 57 173 0.0 1.0 0.00 0.00 0.00 90 1019.5
20260506154006 57 298 0.0 0.0 0.00 0.00 0.00 91 1019.6
20260506153504 56 299 0.0 0.0 0.00 0.00 0.00 92 1019.6
20260506153003 56 98 0.0 0.0 0.00 0.00 0.00 94 1019.6
20260506152501 56 101 0.0 0.0 0.00 0.00 0.00 95 1019.5
20260506152100 55 101 0.0 0.0 0.00 0.00 0.00 96 1019.6
20260506151602 55 101 0.0 0.0 0.00 0.00 0.00 97 1019.6
20260506151057 55 101 0.0 0.0 0.00 0.00 0.00 97 1019.6
20260506150556 54 101 0.0 0.0 0.00 0.00 0.00 97 1019.6
20260506150057 54 98 0.0 0.0 0.00 0.00 0.00 98 1019.6
20260506145556 53 282 0.0 0.0 0.00 0.00 0.00 97 1019.7
20260506145052 53 215 0.0 0.0 0.00 0.00 0.00 97 1019.6
20260506144552 53 215 0.0 0.0 0.00 0.00 0.00 97 1019.7
20260506144051 53 215 0.0 0.0 0.00 0.00 0.00 97 1019.7
20260506143550 52 215 0.0 0.0 0.00 0.00 0.00 97 1019.7
20260506143050 52 215 0.0 0.0 0.00 0.00 0.00 97 1019.7
20260506142549 52 216 0.0 0.0 0.00 0.00 0.00 97 1019.7
20260506142052 52 217 0.0 0.0 0.00 0.00 0.00 97 1019.7
20260506141548 52 217 0.0 0.0 0.00 0.00 0.00 97 1019.6
20260506141048 52 217 0.0 0.0 0.00 0.00 0.00 97 1019.7
20260506140547 52 217 0.0 0.0 0.00 0.00 0.00 96 1019.6
20260506140047 52 217 0.0 0.0 0.00 0.00 0.00 96 1019.5
20260506135545 52 217 0.0 0.0 0.00 0.00 0.00 96 1019.4
20260506135044 52 91 0.0 0.0 0.00 0.00 0.00 97 1019.3
20260506134544 52 91 0.0 0.0 0.00 0.00 0.00 97 1019.3
20260506134044 52 91 0.0 0.0 0.00 0.00 0.00 97 1019.3
20260506133544 52 91 0.0 0.0 0.00 0.00 0.00 97 1019.2
20260506133044 52 91 0.0 0.0 0.00 0.00 0.00 97 1019.2
20260506132542 52 91 0.0 0.0 0.00 0.00 0.00 97 1019.2
20260506132041 52 91 0.0 0.0 0.00 0.00 0.00 97 1019.1
20260506131549 52 91 0.0 0.0 0.00 0.00 0.00 97 1019.1
20260506131040 52 91 0.0 0.0 0.00 0.00 0.00 97 1018.9
20260506130541 52 91 0.0 0.0 0.00 0.00 0.00 97 1018.8
20260506130056 52 91 0.0 0.0 0.00 0.00 0.00 97 1018.8
20260506125539 52 91 0.0 0.0 0.00 0.00 0.00 97 1018.9
20260506125038 52 91 0.0 0.0 0.00 0.00 0.00 97 1018.8
20260506124538 52 91 0.0 0.0 0.00 0.00 0.00 97 1018.8
20260506124038 52 91 0.0 0.0 0.00 0.00 0.00 97 1018.7
20260506123538 52 91 0.0 0.0 0.00 0.00 0.00 97 1018.7
20260506123040 52 91 0.0 0.0 0.00 0.00 0.00 97 1018.8
20260506122540 52 91 0.0 0.0 0.00 0.00 0.00 97 1018.8
20260506122037 52 91 0.0 0.0 0.00 0.00 0.00 97 1018.7
20260506121537 52 91 0.0 0.0 0.00 0.00 0.00 97 1018.7
20260506121036 52 91 0.0 0.0 0.00 0.00 0.00 97 1018.6
20260506120536 52 91 0.0 0.0 0.00 0.00 0.00 97 1018.6
20260506120036 52 91 0.0 0.0 0.00 0.00 0.00 97 1018.6
20260506115535 52 91 0.0 0.0 0.00 0.00 0.00 97 1018.5
20260506115034 52 91 0.0 0.0 0.00 0.00 0.00 97 1018.5
20260506114538 52 91 0.0 0.0 0.00 0.00 0.00 97 1018.5
20260506114034 52 91 0.0 0.0 0.00 0.00 0.00 97 1018.4
20260506113534 52 91 0.0 0.0 0.00 0.00 0.00 97 1018.4
20260506113040 52 91 0.0 0.0 0.00 0.00 0.00 97 1018.5
20260506112533 52 91 0.0 0.0 0.00 0.00 0.00 97 1018.5
20260506112037 51 91 0.0 0.0 0.00 0.00 0.00 97 1018.5
20260506111533 51 91 0.0 0.0 0.00 0.00 0.00 97 1018.5
20260506111033 51 91 0.0 0.0 0.00 0.00 0.00 97 1018.4
20260506110533 51 91 0.0 0.0 0.00 0.00 0.00 96 1018.4
20260506110035 51 91 0.0 0.0 0.00 0.00 0.00 96 1018.4
20260506105532 51 91 0.0 0.0 0.00 0.00 0.00 96 1018.4
20260506105034 51 91 0.0 0.0 0.00 0.00 0.00 96 1018.4
20260506104531 51 91 0.0 0.0 0.00 0.00 0.00 96 1018.3
20260506104031 51 91 0.0 0.0 0.00 0.00 0.00 96 1018.4
20260506103531 51 91 0.0 0.0 0.00 0.00 0.00 96 1018.4
20260506103044 51 91 0.0 0.0 0.00 0.00 0.00 96 1018.4
20260506102530 51 91 0.0 0.0 0.00 0.00 0.00 96 1018.4
20260506102030 51 91 0.0 0.0 0.00 0.00 0.00 96 1018.4
20260506101543 51 91 0.0 0.0 0.00 0.00 0.00 96 1018.4
20260506101030 51 91 0.0 0.0 0.00 0.00 0.00 96 1018.4
20260506100530 51 91 0.0 0.0 0.00 0.00 0.00 96 1018.4
20260506100043 51 91 0.0 0.0 0.00 0.00 0.00 96 1018.4
20260506095530 51 91 0.0 0.0 0.00 0.00 0.00 96 1018.3
20260506095033 51 91 0.0 0.0 0.00 0.00 0.00 96 1018.3
20260506094530 51 91 0.0 0.0 0.00 0.00 0.00 96 1018.3
20260506094029 51 91 0.0 0.0 0.00 0.00 0.00 95 1018.4
20260506093529 51 91 0.0 0.0 0.00 0.00 0.00 95 1018.5
20260506093038 51 91 0.0 0.0 0.00 0.00 0.00 95 1018.5
20260506092530 51 91 0.0 0.0 0.00 0.00 0.00 95 1018.5
20260506092029 51 91 0.0 0.0 0.00 0.00 0.00 95 1018.5
20260506091529 51 91 0.0 0.0 0.00 0.00 0.00 94 1018.5
20260506091032 51 91 0.0 0.0 0.00 0.00 0.00 95 1018.5
20260506090526 51 91 0.0 0.0 0.00 0.00 0.00 94 1018.4
20260506090027 51 91 0.0 0.0 0.00 0.00 0.00 94 1018.4
20260506085524 51 91 0.0 0.0 0.00 0.00 0.00 94 1018.3
20260506085020 51 91 0.0 0.0 0.00 0.00 0.00 94 1018.3
20260506084519 51 91 0.0 0.0 0.00 0.00 0.00 94 1018.3
20260506084019 52 91 0.0 0.0 0.00 0.00 0.00 94 1018.3
20260506082512 52 91 0.0 0.0 0.00 0.00 0.00 93 1018.3
20260506082011 52 91 0.0 0.0 0.00 0.00 0.00 93 1018.3
20260506081510 52 91 0.0 0.0 0.00 0.00 0.00 93 1018.3
20260506081009 53 91 0.0 0.0 0.00 0.00 0.00 93 1018.2
20260506080509 53 91 0.0 0.0 0.00 0.00 0.00 93 1018.2
20260506073504 54 91 0.0 0.0 0.00 0.00 0.00 93 1018.0
20260506073006 54 91 0.0 0.0 0.00 0.00 0.00 93 1017.9
20260506072503 54 91 0.0 0.0 0.00 0.00 0.00 93 1017.9
20260506072003 54 91 0.0 0.0 0.00 0.00 0.00 93 1017.9
20260506071502 54 91 0.0 0.0 0.00 0.00 0.00 93 1017.9
20260506071003 54 91 0.0 0.0 0.00 0.00 0.00 93 1017.9
20260506070501 54 91 0.0 0.0 0.00 0.00 0.00 93 1017.9
20260506070103 54 91 0.0 0.0 0.00 0.00 0.00 92 1017.8
20260506062057 55 91 0.0 0.0 0.00 0.00 0.00 92 1017.6
20260506061557 55 91 0.0 0.0 0.00 0.00 0.00 92 1017.6
20260506061056 55 91 0.0 0.0 0.00 0.00 0.00 92 1017.5
20260506060559 55 91 0.0 0.0 0.00 0.00 0.00 92 1017.4
20260506051055 55 91 0.0 0.0 0.00 0.00 0.00 91 1017.3
20260506050553 55 91 0.0 0.0 0.00 0.00 0.00 91 1017.2
20260506045052 56 91 0.0 0.0 0.00 0.00 0.00 90 1017.1
20260506044653 56 91 0.0 0.0 0.00 0.00 0.00 90 1017.0
20260506044053 56 91 0.0 0.0 0.00 0.00 0.00 90 1017.0
20260506043550 56 91 0.0 0.0 0.00 0.00 0.00 90 1016.9
20260506043050 56 91 0.0 0.0 0.00 0.00 0.00 90 1016.9
20260506042549 56 91 0.0 0.0 0.00 0.00 0.00 90 1016.8
20260506042048 56 91 0.0 0.0 0.00 0.00 0.00 89 1016.9
20260506041559 56 91 0.0 0.0 0.00 0.00 0.00 89 1016.9
20260506041048 56 91 0.0 0.0 0.00 0.00 0.00 89 1016.8
20260506040550 56 91 0.0 0.0 0.00 0.00 0.00 89 1016.7
20260506040047 56 91 0.0 0.0 0.00 0.00 0.00 89 1016.7
20260506035546 56 91 0.0 0.0 0.00 0.00 0.00 89 1016.6
20260506035046 56 91 0.0 0.0 0.00 0.00 0.00 89 1016.5
20260506034620 56 91 0.0 0.0 0.00 0.00 0.00 88 1016.5
20260506034046 56 91 0.0 0.0 0.00 0.00 0.00 88 1016.5
20260506033544 56 91 0.0 0.0 0.00 0.00 0.00 88 1016.4
20260506033043 56 91 0.0 0.0 0.00 0.00 0.00 87 1016.3
20260506032542 57 91 0.0 0.0 0.00 0.00 0.00 87 1016.3
20260506032041 57 91 0.0 0.0 0.00 0.00 0.00 87 1016.2
20260506031543 57 91 0.0 0.0 0.00 0.00 0.00 87 1016.2
20260506031040 57 91 0.0 0.0 0.00 0.00 0.00 86 1016.0
20260506030544 57 91 0.0 0.0 0.00 0.00 0.00 86 1016.0
20260506030041 57 91 0.0 0.0 0.00 0.00 0.00 86 1015.9
20260506025540 57 91 0.0 0.0 0.00 0.00 0.00 86 1015.9